Current Version              Previous Version:    01  02  03  04  05  06  07  08  09  10  11  12  13  14  15  16  17  18  19  20  21  22  23  24  25  26  27  28  29  30  
   31  32  33  34  35  36  37  38  39  40  41  42  43  44  45  46  47  48  49  50  51  52  53  54  55  56  57  58  59  60  

[Printable]
459
ASUS44 KLUB 221210
RWRTX
WEST TEXAS WEATHER ROUNDUP
NATIONAL WEATHER SERVICE LUBBOCK TX
700 AM CDT FRI AUG 22 2014

NOTE: "FAIR" INDICATES FEW OR NO CLOUDS BELOW 12,000 FEET WITH NO
SIGNIFICANT WEATHER AND/OR OBSTRUCTIONS TO VISIBILITY.

TXZ004-006>008-010-012-014-016-OKZ002-221300-
TEXAS PANHANDLE/OKLAHOMA PANHANDLE

CITY           SKY/WX    TMP DP  RH WIND       PRES   REMARKS
AMARILLO       PTCLDY    74  63  68 SW15      30.05R
BORGER         PTCLDY    79  61  53 SW13G20   30.01R
CANADIAN       PTCLDY    78  66  66 SW5       29.98R
DALHART        CLEAR     70  57  63 S9        30.04S
DUMAS          PTCLDY    72  59  63 SW13      30.03R
GUYMON         CLEAR     70  62  76 S8        29.97R
HEREFORD       PTCLDY    70  65  84 S9        30.07S
PAMPA          PTCLDY    73  60  63 SW12      30.04R
PERRYTON       PTCLDY    72  65  79 S9        29.99R
$$

TXZ026-029-035-045-048-221300-
SOUTHERN PANHANDLE/SOUTH PLAINS/ROLLING PLAINS

CITY           SKY/WX    TMP DP  RH WIND       PRES   REMARKS
CHILDRESS      CLEAR     76  65  68 S7        30.00R
SEMINOLE       CLEAR     72  63  72 S10       30.08S
LUBBOCK        PTCLDY    73  62  68 S12       30.06S
PLAINVIEW      CLEAR     67  62  84 SW5       30.05S
SNYDER         CLEAR     77  63  61 S14       30.06R
$$

TXZ052-054-060>062-072-078-127-140-154-169-221300-
PERMIAN BASIN/CONCHO VALLEY/BIG COUNTRY/EDWARDS PLATEAU

CITY           SKY/WX    TMP DP  RH WIND       PRES   REMARKS
ABILENE        CLEAR     78  70  76 S13G21    30.04R
BIG SPRING     CLEAR     79  61  53 S14       30.07S
BRADY          CLEAR     73  70  88 S7        30.07R
BROWNWOOD      PTCLDY    75  70  83 SE6       30.06S
JUNCTION       CLEAR     75  68  78 S5        30.07R
MIDLAND        CLEAR     77  62  59 S12       30.05R
ODESSA         CLEAR     73  62  68 SW5       30.07R
SAN ANGELO     CLEAR     77  69  76 S9G18     30.05R
SONORA         CLEAR     75  70  83 S8        30.11S
SWEETWATER     CLEAR     77  66  68 S14       30.08R
WINK           PTCLDY    74  65  73 CALM      30.03R
$$

TXZ055-058-074-075-080-082-221300-
FAR WEST/SOUTHWEST MOUNTAINS/TRANS PECOS

CITY           SKY/WX    TMP DP  RH WIND       PRES   REMARKS
ALPINE         PTCLDY    69  59  72 S6        30.19S
DRYDEN           N/A     77  61  57 CALM      30.03R
EL PASO        LGT RAIN  65  62  90 E6        30.14S
FORT STOCKTON  PTCLDY    72  63  73 CALM      30.06R
GUADALUPE PASS MOCLDY    65  57  75 SW25G39   30.18F
MARFA          PTCLDY    61  57  88 N3        30.19R
PECOS          PTCLDY    73  64  73 CALM      30.04R
PRESIDIO       FAIR      71  67  87 NE3       30.05R
$$

TXZ014-016-019-021>030-083-221300
TEXAS TECH WEST TEXAS MESONET/TEXAS PANHANDLE/NORTHERN SOUTH PLAINS

CITY           SKY/WX    TMP DP  RH WIND       PRES   REMARKS
ABERNATHY 5ENE   N/A     65  61  86 S6        30.07S
AMARILLO 9NNE    N/A     76  63  64 S20       30.02R
AMARILLO 7SSE    N/A     73  63  69 S13       30.06S
AMHERST 1NE      N/A     66  62  87 S5        30.08R
BOOTLEG 11WNW    N/A     71  60  69 S13       30.10S
CANADIAN 6E      N/A     77  65  67 S7        29.97S
CAPROCK CYN SP   N/A     77  63  63 SW15      30.01R
CHILDRESS 2NNE   N/A     76  64  66 S10       29.99R
CLARENDON 2WSW   N/A     75  62  63 S12       30.02S
CLAUDE 12SW      N/A     76  63  64 S5        30.06S
DIMMITT 2NE      N/A     67  61  81 S9        30.08S
FLOYDADA 2NNE    N/A     70  62  76 S10       30.05F
FRIONA 2NE       N/A     70  62  75 S10       30.09R
GOODLETT 3W      N/A     79  62  57 S9        29.98R
HART 3N          N/A     66  62  86 S7        30.07S
HEREFORD 2NW     N/A     70  61  74 S9        30.07S
MCLEAN 1E        N/A     73  64  73 S9        30.00S
MEMPHIS 1NE      N/A     74  66  74 SE3       29.99R
MULESHOE 2SSW    N/A     70  62  77 S8        30.07S
OLTON 6S         N/A     65  60  83 S7        30.07S
PALO DURO SP     N/A     74  62  66 S16       30.05F
PAMPA 2E         N/A     74  62  66 S10       30.03R
PLAINVIEW 1S     N/A     68  62  81 S5        30.06S
SILVERTON 7ESE   N/A     73  63  69 SW16      30.04S
TULIA 2ENE       N/A     69  61  75 S9        30.06S
TURKEY 2WSW      N/A     77  64  64 S10       29.99S
UMBARGER 3NNE    N/A     72  62  71 S18       30.06S
$$

TXZ033>036-039>041-045>048-221300
TEXAS TECH WEST TEXAS MESONET/SOUTH PLAINS

CITY           SKY/WX    TMP DP  RH WIND       PRES   REMARKS
AIKEN 3WSW       N/A     67  62  84 S7        30.07S
ANTON 6SSW       N/A     65  60  82 SE5       30.07R
BROWNFIELD 2S    N/A     66  62  87 SE7       30.08R
DENVR CTY 7WNW   N/A     66  60  80 S6        30.08R
GAIL 2ESE        N/A     75  60  60 S9        30.04S
LAMESA 2SE       N/A     67  63  85 S5        30.07R
LEVELLAND 4S     N/A     67  62  85 SE6       30.07S
LUBBOCK 3WNW     N/A     74  61  63 S12       30.06S
MORTON 1ENE      N/A     68  62  81 S7        30.08R
ODONNELL 1N      N/A     72  62  70 S9        30.07R
PLAINS 3N        N/A     69  62  79 S7        30.08S
RALLS 1SE        N/A     71  63  73 S8        30.07S
REESE CENTER     N/A     69  62  79 S7        30.07R
SEAGRAVES 1SW    N/A     69  64  84 SE3       30.07R
SEMINOLE 2NNE    N/A     73  62  69 S10       30.07R
SLATON 2NE       N/A     69  62  77 S8        30.07R
SNYDER 3E        N/A     75  62  63 S10       30.04S
SUNDOWN 8SW      N/A     66  63  87 S8        30.08R
TAHOKA 3NNE      N/A     68  62  79 S7        30.06R
WOLFFORTH 6SSW   N/A     70  62  77 S8        30.08R
$$

TXZ031-032-036>038-042>044-221300-
TEXAS TECH WEST TEXAS MESONET/ROLLING PLAINS

CITY           SKY/WX    TMP DP  RH WIND       PRES   REMARKS
ASPERMONT 3NE    N/A     78  63  61 S8        30.01R
FLUVANNA 3WNW    N/A     73  61  65 S14       30.05S
GRAHAM 5SSW      N/A     75  59  57 S13       30.05R
GUTHRIE 10WSW    N/A     76  62  60 S13       30.00R
HASKELL 1NW      N/A     78  64  62 S8        30.00S
JAYTON 1SSE      N/A     78  62  56 S10       30.02R
KNOX CITY 3NW    N/A     79  63  58 S7        30.00R
LK A HENRY 1NW   N/A     78  61  55 S10       30.02S
NORTHFIELD 1S    N/A     75  66  73 SE7       29.99R
ODELL 4ENE       N/A     79  63  57 S13       29.99R
PADUCAH 10SW     N/A     74  64  69 S10       30.00R
POST 1NE         N/A     76  60  58 S7        30.04R
RRING SPRGS 3N   N/A     77  64  64 S13       30.02R
SEYMOUR 3NW      N/A     78  64  62 S7        29.99S
SPUR 1W          N/A     75  60  60 S6        30.02R
WEINERT 2NNE     N/A     78  66  66 S12       30.00S
WHITE RVR 6NE    N/A     71  65  81 S7        30.04S
$$

TXZ052-054-060>062-072-078-127-140-154-169-221300-
TEXAS TECH WEST TEXAS MESONET/PERMIAN BASIN/
CONCHO VALLEY/BIG COUNTRY/EDWARDS PLATEAU

CITY           SKY/WX    TMP DP  RH WIND       PRES   REMARKS
COYANOSA 2N      N/A     71  67  86 SE5       30.03S
JUNCTION 1SSW    N/A     73  68  84 CALM      30.08R
MERTZON 3NNE     N/A     75  68  77 S12       30.06R
SAN ANGELO 7NW   N/A     76  67  74 S9        30.05S
STRLNG CT 4WSW   N/A     76  65  70 SE8       30.06R
ST LAWRNCE 5SW   N/A     74  59  57 S16       30.06R
SWEETWATR 11SW   N/A     75  67  75 S13       30.07R
WALL 1E          N/A     74  67  77 S8        30.06R
$$

TXZ055-058-074-075-080-082-221300-
TEXAS TECH WEST TEXAS MESONET/FAR WEST/SOUTHWEST MOUNTAINS/TRANS PECOS

CITY           SKY/WX    TMP DP  RH WIND       PRES   REMARKS
PRSMN GAP BBNP   N/A     76  62  62 NE8       30.05R
GUADLPE MTN NP   N/A     69  51  52 W24       30.17F
$$